This is the latest recevied weather packets stored in our database for station/object KC5DAQ-27. If no packets are shown the sender has not sent any weather packets the latest 10 day(s).
| Time | Temp. | Humidity | Pressure | Rain* | Wind** | Luminosity | Snow |
|---|---|---|---|---|---|---|---|
| 1777383751 | 25.56° C | 93% | 1004.7 hPa | 0 mm | - | 343 W/m² | - |
| 1777383691 | 25.56° C | 93% | 1004.6 hPa | 0 mm | - | 343 W/m² | - |
| 1777383630 | 25.56° C | 93% | 1004.7 hPa | 0 mm | - | 313 W/m² | - |
| 1777383571 | 25° C | 93% | 1004.7 hPa | 0 mm | - | 327 W/m² | - |
| 1777383512 | 25° C | 93% | 1004.6 hPa | 0 mm | - | 304 W/m² | - |
| 1777383453 | 25° C | 93% | 1004.8 hPa | 0 mm | - | 274 W/m² | - |
| 1777383391 | 25° C | 93% | 1004.7 hPa | 0 mm | - | 237 W/m² | - |
| 1777383332 | 25° C | 93% | 1004.7 hPa | 0 mm | - | 237 W/m² | - |
| 1777383272 | 25° C | 93% | 1004.8 hPa | 0 mm | - | 204 W/m² | - |
| 1777383212 | 25° C | 93% | 1004.6 hPa | 0 mm | - | 197 W/m² | - |
| 1777383151 | 25° C | 93% | 1004.7 hPa | 0 mm | - | 229 W/m² | - |
| 1777383090 | 25° C | 93% | 1004.6 hPa | 0 mm | - | 225 W/m² | - |
| 1777383032 | 25° C | 93% | 1004.6 hPa | 0 mm | - | 206 W/m² | - |
| 1777382970 | 25° C | 93% | 1004.5 hPa | 0 mm | - | 204 W/m² | - |
| 1777382912 | 25° C | 93% | 1004.6 hPa | 0 mm | - | 193 W/m² | - |
| 1777382852 | 25° C | 93% | 1004.5 hPa | 0 mm | - | 174 W/m² | - |
| 1777382791 | 25° C | 93% | 1004.6 hPa | 0 mm | - | 171 W/m² | - |
| 1777382731 | 25° C | 93% | 1004.5 hPa | 0 mm | - | 167 W/m² | - |
| 1777382672 | 25° C | 94% | 1004.5 hPa | 0 mm | - | 162 W/m² | - |
| 1777382612 | 25° C | 94% | 1004.5 hPa | 0 mm | - | 160 W/m² | - |
| 1777382552 | 25° C | 94% | 1004.5 hPa | 0 mm | - | 169 W/m² | - |
| 1777382492 | 25° C | 94% | 1004.4 hPa | 0 mm | - | 169 W/m² | - |
| 1777382433 | 25° C | 94% | 1004.5 hPa | 0 mm | - | 158 W/m² | - |
| 1777382372 | 25° C | 94% | 1004.4 hPa | 0 mm | - | 157 W/m² | - |
| 1777382311 | 25° C | 94% | 1004.4 hPa | 0 mm | - | 151 W/m² | - |
* Rain latest hour (hover to see other rain measurements)
** Current wind speed in m/s (hover to see current wind gust speed)